www.pogodaiklimat.ru

Погода и климат >> Архив погоды >> Норвегия >> Флиса


ПОГОДА во Флиса

  • Прогноз погоды во Флиса
  • Монитор погоды во Флиса

АРХИВ ПОГОДЫ во Флиса

Время (UTC), дата Ветер
(напр.,м/с)
 
Видим.   Явления Облачность Т
(С)
Тd
(С)
f
(%)
Тe
(С)
Тes
(С)
Комфортность P
(гПа)
Po
(гПа)
Тmin
(С)
Tmax
(С)
R
(мм)
R24
(мм)
S
(см)
16 16.08 ЮВ 1
{3}
н/о н/о +17.1 +15.7 91 +18 +18 1006.4 984.8
17 16.08 С 1
{2}
н/о н/о +16.7 +15.3 91 +18 +18 1006.4 984.8
18 16.08 Ю 2
{5}
24 км 9/9 600 м
[Cu Sc Ac trans]
+16.6 +14.0 85 +17 +17 1006.4 984.8 +13.8 +17.2 1
19 16.08 Ю 3
{5}
н/о н/о +16.1 +13.3 83 +16 +16 1006.5 984.8
20 16.08 Ю 2
{5}
н/о н/о +15.6 +13.1 85 +15 +15 1006.7 985.0
21 16.08 Ю 3
{6}
н/о н/о +14.9 +12.5 86 +14 +14 1007.0 985.2
22 16.08 Ю 3
{6}
н/о н/о +14.3 +12.2 87 +13 +13 1007.0 985.2
23 16.08 Ю 3
{7}
н/о н/о +13.7 +11.0 84 +13 +13 1007.1 985.3
00 17.08 Ю 3
{7}
н/о н/о +13.3 +10.6 84 +12 +12 1006.6 984.7
01 17.08 Ю 3
{6}
н/о н/о +13.2 +10.5 84 +12 +12 1006.4 984.5
02 17.08 ЮВ 1
{4}
н/о н/о +12.9 +10.4 85 +13 +13 1006.0 984.1
03 17.08 Ю 3
{5}
н/о н/о +13.0 +10.8 86 +12 +12 1005.8 984.0
04 17.08 Ю 3
{7}
н/о н/о +13.2 +11.0 87 +12 +12 1005.8 983.9
05 17.08 Ю 3
{7}
н/о н/о +13.2 +11.1 87 +12 +12 1005.6 983.8
06 17.08 Ю 3
{7}
26 км 10/10 300 м
[Cu Sc]
+13.5 +10.8 84 +12 +12 1005.4 983.6 +12.9 +16.6
07 17.08 Ю 2
{6}
н/о н/о +13.2 +11.3 88 +12 +12 1005.3 983.5
08 17.08 Ю 4
{6}
н/о н/о +13.5 +11.2 86 +12 +12 1004.8 983.0
09 17.08 Ю 3
{7}
н/о н/о +13.3 +12.1 92 +12 +12 1004.1 982.3
10 17.08 Ю 3
{7}
н/о н/о +13.5 +12.5 94 +12 +12 1003.7 981.9
11 17.08 Ю 4
{7}
н/о н/о +14.3 +12.7 90 +13 +13 1003.1 981.4
12 17.08 Ю 4
{9}
2000 м слаб. ливневой дождь 10/10 300 м
[Cu Sc]
+14.8 +12.8 88 +14 +14 1002.4 980.7 2
13 17.08 ЮВ 4
{9}
н/о н/о +14.3 +12.8 91 +13 +13 1001.7 980.0
14 17.08 Ю 4
{9}
н/о н/о +14.4 +13.1 92 +13 +13 1001.1 979.5 1
15 17.08 Ю 4
{9}
н/о н/о +14.7 +13.0 90 +13 +13 1000.7 979.0
16 17.08 Ю 3
{8}
н/о н/о +14.5 +13.5 94 +14 +14 1000.3 978.7
17 17.08 Ю 3
{6}
н/о н/о +14.4 +13.7 96 +13 +13 1000.0 978.4 1
18 17.08 Ю 3
{9}
н/о н/о +14.6 +13.8 95 +14 +14 999.8 978.2 +12.8 +14.9 7
19 17.08 Ю 2
{5}
н/о н/о +14.6 +14.0 96 +14 +14 999.4 977.8
20 17.08 Ю 3
{7}
н/о н/о +14.9 +14.2 96 +14 +14 999.7 978.1
21 17.08 Ю 3
{5}
н/о н/о +14.7 +13.7 94 +14 +14 999.8 978.2
22 17.08 Ю 2
{5}
н/о н/о +14.4 +13.0 91 +14 +14 1000.2 978.5
23 17.08 Ю 3
{6}
н/о н/о +14.1 +12.8 92 +13 +13 1000.4 978.8
00 18.08 Ю 3
{7}
н/о н/о +14.2 +12.7 91 +13 +13 1000.7 979.0
01 18.08 Ю 2
{5}
н/о н/о +14.1 +12.8 92 +14 +14 1000.6 979.0
02 18.08 Ю 2
{6}
н/о н/о +14.1 +12.5 90 +14 +14 1000.8 979.1
03 18.08 Ю 2
{5}
н/о н/о +13.9 +12.3 90 +13 +13 1001.0 979.4
04 18.08 Ю 2
{5}
н/о н/о +13.5 +12.2 92 +13 +13 1001.3 979.6
05 18.08 Ю 3
{5}
н/о н/о +13.1 +11.6 91 +12 +12 1001.4 979.7
06 18.08 Ю 4
{7}
н/о н/о +14.1 +11.2 83 +13 +13 1001.6 979.9 +13.1 +15.0 0.9
07 18.08 Ю 5
{9}
н/о н/о +14.8 +10.5 75 +13 +13 1001.6 979.9
08 18.08 Ю 4
{7}
н/о н/о +15.5 +9.8 69 +15 +15 1001.9 980.3
09 18.08 Ю 4
{6}
н/о н/о +16.9 +9.5 62 +16 +16 1002.1 980.6
10 18.08 Ю 2
{6}
н/о н/о +18.6 +7.2 47 +19 +19 1002.1 980.7
11 18.08 ЮЗ 3
{7}
н/о н/о +18.5 +6.6 46 +19 +19 1002.1 980.7
12 18.08 Ю 4
{9}
24 км 6/4 600 м
[Cu Sc Ac trans Ci fib]
+18.8 +6.8 46 +19 +22 1002.1 980.8
13 18.08 Ю 3
{7}
н/о н/о +18.5 +6.3 45 +19 +19 1002.1 980.8
14 18.08 Ю 3
{6}
н/о н/о +19.0 +7.3 47 +20 +20 1001.8 980.5
15 18.08 Ю 3
{5}
н/о н/о +18.2 +7.8 51 +18 +18 1001.5 980.1
16 18.08 Ю 2
{7}
н/о н/о +17.5 +8.9 57 +18 +18 1001.3 979.9
17 18.08 ЮЗ 1
{4}
н/о н/о +16.8 +9.9 64 +18 +18 1001.2 979.7
18 18.08 ЮЗ 2
{7}
26 км слаб. ливневой дождь 10/5 300 м
[Cu Sc Ac inh]
+15.6 +8.8 64 +16 +16 1001.2 979.6 +14.1 +19.5
19 18.08 ЮВ 1
{3}
н/о н/о +14.3 +10.0 75 +15 +15 1001.2 979.6
20 18.08 СВ 1
{2}
н/о н/о +12.8 +10.7 87 +13 +13 1000.9 979.2
21 18.08 С 1
{2}
н/о н/о +11.4 +10.5 94 +11 +11 1000.9 979.0
22 18.08 СЗ 1
{2}
н/о н/о +11.7 +10.8 94 +11 +11 1000.7 978.9
23 18.08 штиль 0
{1}
н/о н/о +11.7 +10.8 94 +11 +11 1000.6 978.7
00 19.08 В 1
{3}
н/о н/о +11.9 +11.2 95 +12 +12 1000.6 978.8 1
01 19.08 ЮВ 1
{2}
н/о н/о +12.0 +11.5 97 +12 +12 1000.3 978.5
02 19.08 Ю 1
{4}
н/о н/о +12.1 +11.3 95 +12 +12 1000.2 978.4
03 19.08 Ю 2
{4}
н/о н/о +12.1 +11.4 95 +11 +11 1000.3 978.5
04 19.08 ЮВ 1
{4}
н/о н/о +11.9 +11.4 97 +12 +12 1000.7 978.9
05 19.08 Ю 3
{5}
н/о н/о +12.3 +11.0 92 +11 +11 1001.1 979.3
06 19.08 Ю 3
{6}
10 км дымка {ливн. осадки} 5/5 100 м
[Cu Sc]
+13.2 +11.1 87 +12 +13 1001.4 979.6 +11.4 +15.6 1
07 19.08 Ю 3
{6}
н/о н/о +14.3 +10.1 76 +13 +13 1001.6 979.9
10 19.08 ЮЗ 2
{7}
н/о н/о +17.5 +10.4 63 +18 +18 1001.7 980.3
11 19.08 Ю 4
{9}
н/о н/о +17.6 +10.3 62 +17 +17 1001.3 979.9
12 19.08 ЮЗ 4 22 км 8/8 300 м
[Cu Sc]
+18.7 +9.6 55 +19 +20 1001.7 980.4
13 19.08 Ю 4
{9}
н/о н/о +18.9 +9.6 55 +19 +19 1002.3 980.9
14 19.08 Ю 4
{9}
н/о н/о +18.5 +10.2 58 +19 +19 1002.7 981.3
15 19.08 Ю 3
{8}
н/о н/о +17.9 +10.0 60 +18 +18 1003.2 981.7
16 19.08 ЮЗ 2
{9}
н/о н/о +16.5 +11.5 72 +17 +17 1003.9 982.3
17 19.08 Ю 4
{8}
н/о н/о +16.4 +10.7 69 +16 +16 1004.3 982.7
18 19.08 Ю 2
{9}
20 км слаб. ливневой дождь 6/6 300 м
[Cu Sc]
+15.4 +11.2 76 +15 +15 1004.7 983.0
19 19.08 Ю 3
{6}
н/о н/о +14.3 +11.4 83 +13 +13 1005.3 983.5
20 19.08 Ю 1
{6}
н/о н/о +13.5 +11.2 86 +14 +14 1006.2 984.4
21 19.08 Ю 2
{3}
н/о н/о +13.5 +11.1 85 +13 +13 1006.7 984.8
22 19.08 Ю 3
{5}
н/о н/о +13.5 +11.4 87 +12 +12 1006.9 985.1
23 19.08 Ю 1
{5}
н/о н/о +12.7 +11.2 91 +13 +13 1007.5 985.6
00 20.08 ЮВ 1
{6}
н/о н/о +12.1 +11.0 93 +12 +12 1007.8 985.8
01 20.08 штиль 0
{2}
н/о н/о +11.1 +10.3 95 +10 +10 1008.1 986.0
02 20.08 Ю 1
{3}
н/о н/о +11.7 +10.6 93 +11 +11 1008.4 986.4
03 20.08 С 1
{2}
н/о н/о +10.9 +10.6 98 +10 +10 1009.0 986.9
04 20.08 Ю 2
{4}
н/о н/о +11.8 +10.8 94 +11 +11 1009.3 987.3
05 20.08 Ю 3
{5}
н/о н/о +13.0 +11.0 88 +12 +12 1009.7 987.8
06 20.08 Ю 3
{6}
10 км 4/4 600 м
[Cu Sc Ac trans]
+13.7 +10.7 82 +13 +13 1009.8 988.0 +10.4 +15.4
07 20.08 Ю 4
{6}
н/о н/о +14.7 +10.2 74 +14 +14 1010.4 988.6
08 20.08 Ю 4
{7}
н/о н/о +16.0 +9.7 66 +15 +15 1010.7 988.9
09 20.08 Ю 4
{7}
н/о н/о +17.1 +9.4 60 +17 +17 1010.9 989.2
10 20.08 Ю 4
{8}
н/о н/о +17.8 +9.4 58 +18 +18 1011.1 989.5
11 20.08 ЮЗ 3
{8}
н/о н/о +17.9 +8.8 55 +18 +18 1011.3 989.7
12 20.08 Ю 5
{10}
н/о н/о +19.3 +7.8 47 +20 +20 1011.1 989.6
13 20.08 Ю 3
{9}
н/о н/о +19.6 +7.2 45
14 20.08 н/о
15 20.08 Ю 3
{10}
н/о н/о +18.8 +7.1 46 +19 +19 1012.1 990.5
16 20.08 Ю 3
{8}
н/о н/о +18.7 +8.4 51 +19 +19 1012.4 990.8
17 20.08 Ю 2
{7}
н/о н/о +17.1 +9.4 60 +17 +17 1013.1 991.4
18 20.08 Ю 2 н/о н/о +16.5 +9.6 64 +17 +17 1013.7 991.9
19 20.08 Ю 3
{7}
н/о н/о +15.4 +10.2 71 +15 +15 1014.2 992.3
20 20.08 Ю 2
{5}
н/о н/о +14.7 +10.8 77 +14 +14 1014.6 992.7
21 20.08 Ю 3
{4}
н/о н/о +13.9 +10.8 82 +13 +13 1014.9 992.9
22 20.08 Ю 3
{5}
н/о н/о +13.5 +10.9 84 +12 +12 1015.0 993.0
23 20.08 Ю 2
{5}
н/о н/о +13.1 +11.1 88 +12 +12 1015.5 993.4
00 21.08 ЮВ 2
{7}
н/о н/о +13.4 +11.3 87 +13 +13 1015.8 993.7
01 21.08 Ю 2
{4}
н/о н/о +13.4 +11.6 89 +13 +13 1016.1 994.1
02 21.08 Ю 2
{3}
н/о н/о +13.3 +11.4 88 +13 +13 1016.4 994.3
03 21.08 Ю 1
{3}
н/о н/о +13.1 +11.5 90 +13 +13 1016.8 994.7
04 21.08 Ю 1
{2}
н/о н/о +12.5 +11.5 94 +12 +12 1017.1 995.0
05 21.08 Ю 1
{3}
н/о н/о +13.0 +11.4 90 +13 +13 1017.6 995.4
06 21.08 Ю 2
{4}
22 км 6/6 200 м
[Cu Sc]
+14.4 +11.0 80 +14 +15 1017.8 995.8 +12.3 +16.5
07 21.08 З 2
{4}
н/о н/о +14.3 +8.6 69 +14 +14 1018.3 996.3
08 21.08 З 1
{3}
н/о н/о +15.8 +8.5 62 +17 +17 1018.4 996.5
09 21.08 СВ 1
{3}
н/о н/о +17.0 +8.2 56 +18 +18 1018.4 996.5
10 21.08 СЗ 2
{4}
н/о н/о +17.7 +7.2 50 +18 +18 1018.4 996.6
11 21.08 З 3
{9}
н/о н/о +18.5 +7.0 47
12 21.08 З 2
{9}
29 км 1/1 300 м
[Cu hum]
+19.2 +6.2 43 +20 +20 1018.4 996.8
13 21.08 З 2
{5}
н/о н/о +19.8 +6.0 40 +21 +21 комфорт 1018.4 996.8
14 21.08 СЗ 2
{4}
н/о н/о +20.3 +6.0 39 +22 +22 комфорт 1018.6 997.0
15 21.08 З 2
{5}
н/о н/о +20.2 +4.1 35 +21 +21 комфорт 1018.7 997.1
16 21.08 ЮЗ 2
{5}
н/о н/о +20.0 +4.1 35 +21 +21 комфорт 1018.7 997.1
17 21.08 ЮЗ 2
{4}
н/о н/о +19.4 +6.4 43 +21 +21 комфорт 1018.9 997.2
18 21.08 З 1
{5}
30 км 1/1 600 м
[Cu hum Ac lent]
+17.4 +8.1 54 +18 +19 1019.2 997.4 +13.7 +20.6
19 21.08 СЗ 1
{1}
н/о н/о +13.0 +8.5 74 +13 +13 1019.8 997.6
20 21.08 штиль 0
{1}
н/о н/о +11.4 +8.3 81 +11 +11 1020.3 998.0
21 21.08 ЮВ 1
{3}
н/о н/о +12.5 +7.6 72 +13 +13 1020.7 998.5
22 21.08 Ю 1
{2}
н/о н/о +11.9 +7.9 76 +12 +12 1020.8 998.6
23 21.08 штиль 0
{2}
н/о н/о +9.7 +7.9 89 +9 +9 1021.2 998.8
00 22.08 штиль 0
{3}
н/о н/о +8.4 +6.9 90 +8 +8 1021.4 998.8
01 22.08 штиль 0
{2}
н/о н/о +7.1 +6.6 97 +6 +6 1021.6 998.9
02 22.08 СВ 1
{2}
н/о н/о +7.0 +6.7 98 +6 +6 1021.8 999.1
03 22.08 С 1
{2}
н/о н/о +6.7 +6.3 97 +5 +5 1021.8 999.1
04 22.08 СВ 1
{2}
н/о н/о +6.5 +6.0 97 +5 +5 1021.7 999.0
05 22.08 СВ 1
{2}
н/о н/о +8.2 +7.1 93 +7 +7 1021.5 998.9
06 22.08 В 1
{2}
7000 м дымка 6/1 200 м
[St Cs]
+10.4 +8.6 89 +10 +11 1021.2 998.8 +6.5 +17.4
07 22.08 Ю 3
{4}
н/о н/о +11.5 +8.9 84 +10 +10 1021.3 999.0
08 22.08 Ю 3
{5}
н/о н/о +13.1 +8.5 74 +12 +12 1021.0 998.8
09 22.08 Ю 3
{6}
н/о н/о +14.4 +7.8 65 +14 +14 1020.7 998.6
10 22.08 Ю 4
{6}
н/о н/о +14.6 +9.2 70 +13 +13 1020.2 998.2
11 22.08 Ю 3
{6}
н/о н/о +16.5 +11.0 70 +16 +16 1019.3 997.4
12 22.08 Ю 4
{8}
н/о н/о +15.8 +11.1 74 +15 +15 1018.8 996.8
13 22.08 Ю 3
{7}
н/о н/о +14.5 +12.5 88 +14 +14 1018.7 996.7 0.3
14 22.08 Ю 4
{7}
н/о н/о +14.0 +12.6 91 +12 +12 1018.0 995.9
15 22.08 Ю 5
{9}
н/о н/о +13.9 +12.1 89 +12 +12 1017.2 995.2
16 22.08 Ю 3
{9}
н/о н/о +13.2 +12.0 92 +12 +12 1016.3 994.2 1
17 22.08 Ю 4
{7}
н/о н/о +12.6 +11.9 95 +11 +11 1014.8 992.7 1
18 22.08 Ю 3
{8}
н/о н/о +13.2 +11.9 92 +12 +12 1015.0 992.9 +10.3 +16.6 5
19 22.08 Ю 2
{6}
н/о н/о +13.1 +11.6 91 +12 +12 1015.6 993.5
20 22.08 Ю 1
{4}
н/о н/о +12.8 +11.7 93 +13 +13 1016.0 993.9
21 22.08 Ю 2
{4}
н/о н/о +13.0 +11.7 92 +12 +12 1016.0 993.9
22 22.08 ЮЗ 1
{5}
н/о н/о +13.0 +11.6 91 +13 +13 1016.0 993.9
23 22.08 Ю 1
{4}
н/о н/о +12.2 +11.1 93 +12 +12 1016.1 994.0
00 23.08 ЮЗ 2
{6}
н/о н/о +12.3 +10.5 89 +11 +11 1016.2 994.1
01 23.08 Ю 1
{4}
н/о н/о +11.2 +9.9 92 +11 +11 1016.3 994.1
02 23.08 В 1
{3}
н/о н/о +10.3 +9.8 97 +10 +10 1016.1 993.8
03 23.08 ЮВ 1
{4}
н/о н/о +11.2 +10.3 94 +11 +11 1015.5 993.3
04 23.08 Ю 3
{6}
н/о н/о +12.4 +10.6 89 +11 +11 1014.9 992.8
05 23.08 Ю 3
{6}
н/о н/о +12.4 +11.3 93 +11 +11 1015.0 992.9
06 23.08 Ю 1
{6}
26 км слаб. дождь 10/0 2000 м
[As op]
+12.2 +11.7 97 +12 +12 1014.6 992.5 +9.8 +13.3 4
07 23.08 Ю 2
{5}
н/о н/о +12.8 +12.4 97 +12 +12 1014.5 992.4 2
08 23.08 Ю 2
{4}
н/о н/о +14.3 +12.7 90 +14 +14 1014.2 992.2
09 23.08 З 1
{3}
н/о н/о +15.9 +12.6 81 +17 +17 1014.4 992.5
10 23.08 ЮЗ 3
{6}
н/о н/о +17.5 +12.4 72 +18 +18 1014.7 993.0
11 23.08 ЮЗ 3
{6}
н/о н/о +18.5 +11.1 62 +19 +19 1014.6 992.9
12 23.08 З 4
{7}
28 км 5/4 300 м
[Cu hum Ci fib]
+20.1 +9.9 52 +22 +25 комфорт 1014.8 993.3 2
13 23.08 З 4
{7}
н/о н/о +20.2 +8.6 47 +21 +21 комфорт 1015.2 993.7
14 23.08 З 3
{6}
н/о н/о +19.7 +8.6 49 +21 +21 комфорт 1015.9 994.3
15 23.08 Ю 2
{6}
н/о н/о +20.2 +9.3 49 +22 +22 комфорт 1016.2 994.6

 

Местоположение метеостанции Флиса (Норвегия): широта 60.61 долгота 12.01 высота над уровнем моря 185 м.

В архиве по умолчанию представлена погода во Флиса за последнюю неделю. Архивные данные за месяц целиком и за предыдущие месяцы, начиная с января 2011 года, Вы можете получить, выбрав интересующий диапазон дат из раскрывающегося списка и нажав кнопку "Ввод!".


*Определитесь, кто Вы:
робот инопланетянин человек

Внимание! Время в таблицах - всемирное. Для получения местного времени необходимо прибавить поправку, которая равна 1 ч.

Смотрите также архив погоды в соседних городах и на ближайших метеорологических станциях:

Погода в Браттмоне (Швеция) (44 км)
Погода в Конгсвингере (Норвегия) (47 км)
Погода в Хамаре (Норвегия) (54 км)
Погода в Хамар аэропорту (Норвегия) (56 км)
Погода в Апельсволле (Норвегия) (63 км)
Погода в Кисе Па Хедмарк (Норвегия) (68 км)
Погода в Осло аэропорту (Норвегия) (68 км)
Погода в Рена аэропорту (Норвегия) (73 км)
Погода в Трюсиль Вегстасьон (Норвегия) (77 км)
Погода в Эурскуге (Норвегия) (81 км)

Пояснения к столбцам:

Ветер - указаны скорость ветра в м/с - средняя за 10 мин, порывы в срок и между сроками (в фигурных скобках) и направление, откуда дует ветер: С - северный, СВ - северо-восточный, В - восточный, ЮВ - юго-восточный, Ю - южный, ЮЗ - юго-западный, З - западный, СЗ - северо-западный.
Видимость - горизонтальная дальность видимости в метрах или километрах. При видимости от 1 до 10 км при отсутствии осадков обычно наблюдается дымка, при ухудшении видимости до 1 км и менее - туман. В сухую погоду видимость может ухудшаться дымом, пылью или мглою.
Явления - указаны атмосферные явления, наблюдавшиеся в срок или в последний час перед сроком; фигурными скобками обозначены явления, наблюдавшиеся между сроками (за 1-3 часа до срока); квадратными скобками обозначены град или гололедные отложения с указанием их диаметра в мм.
Облачность - указаны через наклонную черту общая и нижняя облачность в баллах и высота нижней границы облаков в метрах; квадратными скобками обозначены формы облаков: Ci - перистые, Cs - перисто-слоистые, Cc - перисто-кучевые, Ac - высококучевые, As - высокослоистые, Sc - слоисто-кучевые, Ns - слоисто-дождевые, Cu - кучевые, Cb - кучево-дождевые. Подробнее классификацию облаков см. в Атласе облаков (PDF).
T - Температура воздуха - температура, измеренная на высоте 2 м над землей.
Td - Температура точки росы - температура, при понижении до которой содержащийся в воздухе водяной пар достигнет насыщения.
f - Относительная влажность воздуха - влажноcть воздуха, измеренная на высоте 2 м над землей.
Te - Эффективная температура - температура, которую ощущает одетый по сезону человек в тени. Характеристика душности погоды. При расчете учитывается влияние влажности воздуха и скорости ветра на теплоощущения человека.
Tes - Эффективная температура на солнце - температура, которую ощущает человек, с поправкой на солнечный нагрев. Характеристика знойности погоды. Зависит от высоты солнца над горизонтом, облачности и скорости ветра. Ночью, в пасмурную погоду, а также при ветре 12 м/с и более поправка равна нулю.
P - Атмосферное давление - приведенное к уровню моря атмосферное давление.
Po - Атмосферное давление - измеренное на уровне метеостанции атмосферное давление.
Tmin - Минимальная температура - минимум температуры воздуха на высоте 2 м над землей.
Tmax - Максимальная температура - максимум температуры воздуха на высоте 2 м над землей.
R - Количество осадков - Количество выпавших осадков за период времени, мм. При наведении курсора мыши на число - период времени, за который выпало указанное количество осадков.
R24 - Количество осадков - Количество выпавших осадков за 24 часа, мм.
S - Снежный покров - Высота снежного покрова, см. При наведении курсора мыши на число - состояние снежного покрова и степень покрытия местности в баллах.